Theta_e
315 314 314 314 315 315 315 314 316 316 314 314 313 311 307 305 307 310 310 308 308 317 319 324 324 321 328 331 344 348 356 363 362 361 358 352 353 351 346 345 345 345 345 345 347
314 314 314 314 314 314 315 315 315 316 315 315 313 309 307 308 311 314 308 308 312 321 323 324 325 320 318 323 335 353 352 358 355 355 355 357 353 349 349 348 347 346 346 348 349
315 315 314 314 314 314 314 315 315 314 314 314 313 309 306 311 315 308 318 308 321 325 323 323 323 319 324 326 331 351 352 354 353 354 351 357 353 348 350 352 345 349 350 349 349
314 314 314 314 314 314 314 315 315 314 313 312 313 308 307 314 310 325 322 308 322 319 317 319 319 323 329 332 332 352 348 350 351 355 352 356 351 351 351 351 344 346 348 348 348
315 314 313 314 314 315 315 314 314 313 313 313 311 310 314 314 309 311 319 309 324 317 316 315 325 328 331 333 339 347 346 352 355 354 352 353 355 354 349 348 345 348 348 348 347
314 314 314 314 314 315 315 314 313 312 312 314 307 314 315 306 314 324 317 309 312 318 315 319 324 328 333 333 335 337 352 358 355 352 355 355 355 351 350 347 349 349 348 346 346
314 314 311 313 314 314 314 312 312 313 314 313 309 316 316 306 315 324 312 310 313 316 312 317 327 332 332 332 333 351 357 359 358 356 356 352 360 354 351 347 351 349 347 346 346
314 314 312 310 311 311 311 310 311 313 313 309 313 316 308 310 319 323 316 318 318 314 315 315 323 329 332 326 336 353 350 359 358 355 354 352 362 354 350 351 352 350 348 347 346
313 314 313 309 309 310 311 312 311 313 314 312 314 316 311 315 319 319 317 316 314 314 313 317 322 326 321 319 324 329 351 356 358 354 355 353 357 352 351 351 352 351 349 347 344
312 313 313 309 309 310 314 315 317 316 313 314 316 316 318 322 321 317 318 316 312 311 314 317 315 317 314 318 323 330 345 349 352 355 356 356 355 352 351 351 352 351 350 346 345
312 313 313 312 310 310 315 318 314 316 319 311 314 320 321 322 320 319 319 319 315 316 321 319 318 321 319 319 320 321 322 328 359 354 357 356 356 354 352 350 350 350 347 347 346
312 313 313 313 313 311 310 310 315 318 316 317 318 317 318 320 321 319 321 317 319 321 320 318 319 317 318 319 320 320 322 351 357 355 355 357 359 355 353 351 349 351 350 346 346
311 312 313 313 313 313 312 314 316 315 314 314 319 318 318 319 321 320 319 318 319 320 321 321 322 318 320 320 320 320 319 349 357 356 355 358 360 357 354 351 349 350 349 348 347
311 312 313 313 311 313 312 315 315 314 311 316 316 320 318 319 322 320 321 319 318 319 318 321 321 321 321 322 319 320 318 331 356 350 355 350 358 356 357 355 352 349 349 349 348
312 312 313 313 313 312 314 315 315 311 319 319 318 319 317 320 320 321 320 319 318 318 318 320 318 321 321 321 318 320 330 329 353 346 346 349 348 346 354 357 354 350 349 349 344
312 312 313 312 313 315 316 316 311 313 323 322 318 317 320 319 318 320 320 318 319 320 319 319 319 319 319 319 318 341 342 341 339 342 346 344 344 349 357 355 353 350 347 347 347
312 313 313 312 312 316 315 314 315 319 319 321 320 317 319 318 319 321 321 319 319 320 321 321 321 321 319 320 326 338 339 344 347 349 349 340 351 346 348 349 351 350 347 346 348
313 312 313 312 312 313 316 319 324 324 323 321 318 313 317 316 317 319 319 319 318 317 318 321 323 321 318 320 322 337 334 339 345 346 344 347 352 350 349 346 347 347 343 346 348
313 313 313 310 311 314 315 319 320 323 322 322 317 318 319 320 320 320 319 317 319 316 319 320 323 321 320 318 325 334 337 328 332 329 345 348 354 351 348 350 349 348 347 347 348
314 314 313 314 317 316 317 320 321 320 322 319 320 319 321 321 322 321 322 321 318 317 315 319 323 321 322 323 323 326 325 329 325 335 338 351 354 352 354 353 352 351 349 348 348
314 311 313 317 317 315 319 317 320 320 322 318 319 319 319 321 321 322 322 322 319 319 316 316 319 322 322 323 324 323 324 320 321 325 335 346 348 349 349 348 347 346 345 345 348
308 316 314 317 315 308 314 316 317 313 320 319 318 318 319 320 321 321 322 321 321 318 317 316 316 322 324 320 317 320 322 319 325 329 335 337 343 343 347 345 344 345 345 343 343
311 310 315 315 318 314 311 317 311 313 312 317 319 318 317 319 319 320 321 320 320 317 314 315 315 321 323 321 317 318 318 316 315 328 339 335 339 343 344 342 343 344 343 343 340
312 314 310 307 306 312 317 315 312 313 313 312 315 315 317 318 317 320 320 318 317 316 324 316 315 320 323 320 316 319 318 318 317 328 336 336 347 347 343 341 342 344 342 341 340
311 316 312 316 312 310 311 312 314 314 312 311 314 315 317 319 318 320 319 317 314 317 314 312 319 320 321 319 319 319 317 318 318 322 329 336 343 345 341 338 342 342 339 338 336
315 315 313 314 313 311 308 312 312 312 314 315 313 313 313 318 319 319 318 316 318 315 315 310 318 319 323 323 321 318 317 321 340 341 341 341 344 338 334 336 340 341 339 337 335
317 316 313 313 308 309 310 313 313 314 314 314 314 313 313 313 312 313 314 311 310 315 316 315 316 318 321 319 321 323 318 318 326 340 341 342 338 337 336 339 340 340 338 337 333
Wind_Speed
13 12 12 12 12 12 11 10 10 10 10 10 11 10 9 9 10 6 7 9 12 15 14 16 11 6 4 2 3 5 3 1 3 2 3 3 5 6 8 7 2 3 7 15 25
13 13 12 11 11 12 11 10 10 10 10 11 10 8 8 9 9 12 13 14 14 18 24 20 6 8 2 2 2 3 3 8 6 10 8 5 10 5 6 3 7 13 19 25 24
15 14 13 12 11 10 11 12 11 10 10 10 10 7 5 8 3 7 2 18 20 24 22 15 17 6 3 3 3 4 4 6 7 11 11 6 8 5 10 2 12 20 18 19 20
15 15 14 12 11 11 10 10 12 11 10 10 9 4 3 2 4 1 5 22 26 20 17 13 5 4 4 4 4 3 6 4 5 9 11 5 10 8 2 1 12 19 21 20 15
16 15 14 13 13 11 11 10 10 10 10 9 7 1 1 2 8 2 4 21 28 18 14 6 6 5 5 4 5 3 3 6 5 12 9 9 8 7 4 6 13 18 18 15 14
17 16 14 13 12 12 11 11 9 7 7 7 2 0 3 2 7 5 11 31 22 16 12 7 7 6 2 3 5 2 4 6 6 10 5 11 8 12 12 10 17 17 16 14 15
18 17 15 13 11 9 11 10 9 8 4 4 6 2 2 9 6 3 24 24 23 13 6 6 5 2 1 2 1 3 5 6 4 5 5 17 8 14 6 13 16 14 14 14 14
19 17 15 12 9 9 8 6 6 5 1 2 7 2 7 3 3 8 15 13 16 8 6 11 5 2 1 4 4 4 3 5 2 4 8 1 5 14 8 15 17 16 12 12 12
21 18 15 11 8 5 4 4 3 2 3 8 4 1 8 3 5 11 11 9 12 8 5 5 4 1 2 4 4 6 2 2 2 3 6 3 4 5 9 18 15 15 13 12 8
22 19 14 10 6 5 3 3 7 7 7 4 1 2 5 3 7 7 14 14 5 6 2 3 4 3 3 4 4 4 2 1 3 5 2 2 3 7 12 15 13 13 11 10 10
21 18 14 11 7 3 4 4 3 1 3 7 4 3 4 4 6 7 13 5 5 4 5 2 5 6 6 5 5 3 2 1 2 6 4 3 4 9 8 12 8 8 13 10 14
21 20 17 15 12 7 2 2 3 1 6 8 4 6 11 6 3 5 19 5 4 5 6 5 4 7 7 4 4 2 1 1 2 2 4 5 5 1 8 15 15 6 2 11 9
19 20 16 15 13 1 4 6 3 8 1 6 5 4 4 8 5 6 8 5 4 3 4 6 2 9 6 4 4 2 5 4 3 6 6 4 3 4 3 3 12 8 5 6 7
19 19 17 14 3 1 6 2 10 4 4 4 3 4 4 4 3 4 11 6 2 5 6 3 2 4 4 4 5 3 6 6 10 4 3 2 4 4 8 6 12 17 11 3 8
18 21 18 13 8 3 1 13 2 4 4 2 2 4 0 6 6 1 5 5 5 4 5 5 2 2 2 6 8 5 3 8 6 5 4 2 2 2 9 10 12 18 15 9 5
21 23 17 8 5 7 6 8 4 5 3 4 1 3 4 2 2 4 4 5 4 4 3 5 1 5 7 5 9 8 9 8 5 4 1 4 3 3 6 12 13 15 17 14 2
24 20 15 6 3 2 11 3 5 3 3 5 3 3 3 1 2 3 5 4 5 5 2 4 4 3 4 4 2 5 5 3 3 1 5 2 4 5 5 5 15 19 19 18 6
23 16 11 12 2 4 2 4 3 2 3 4 3 4 5 6 4 4 4 3 2 5 2 5 4 6 4 8 9 8 8 5 5 5 3 3 5 3 2 4 7 16 20 13 8
20 9 6 3 11 5 5 4 5 4 2 4 3 6 6 4 3 3 3 5 3 5 5 3 5 4 5 4 7 6 4 5 7 3 4 3 1 2 5 5 6 12 16 15 13
16 7 4 1 14 5 4 3 3 3 2 1 4 2 3 5 3 4 2 1 3 2 2 4 1 2 5 1 3 6 5 3 2 6 4 3 3 4 7 8 8 9 13 12 11
4 3 7 13 2 5 2 4 4 4 1 4 2 4 3 2 3 1 1 0 1 3 2 5 3 6 1 4 1 3 0 5 5 3 6 4 5 1 6 8 10 9 8 9 9
2 3 7 8 4 1 0 3 3 4 2 3 4 3 2 3 3 1 4 3 3 3 1 1 5 1 4 3 3 2 2 4 5 4 2 3 3 3 6 7 11 9 8 4 5
2 1 4 2 3 2 4 2 4 6 4 2 3 3 2 3 3 1 2 2 4 2 5 4 2 3 8 6 5 5 4 3 2 3 5 6 4 1 8 9 7 10 8 6 6
2 3 4 3 1 3 3 0 4 5 4 4 4 3 3 5 2 1 2 2 1 3 9 6 2 5 5 4 3 5 6 2 4 3 5 4 8 7 10 9 7 8 9 8 6
3 0 3 2 3 3 3 0 4 3 4 8 6 6 1 3 5 3 3 3 4 2 4 4 3 2 3 3 2 1 6 8 5 3 5 7 10 17 14 13 11 9 10 8 6
2 3 3 1 1 2 3 4 4 2 3 3 6 3 6 4 1 3 3 4 2 5 3 3 0 0 1 1 5 3 6 7 5 3 3 8 1 7 8 7 10 11 11 10 8
4 3 3 5 3 4 1 2 2 2 6 3 1 3 4 2 3 3 2 3 1 2 2 3 4 3 3 4 3 4 5 5 4 1 5 5 5 13 10 11 11 10 11 11 10
Wind_Direction
333 331 328 326 323 321 320 319 321 320 319 320 322 323 316 313 314 279 240 213 200 176 161 150 147 131 148 190 142 131 103 134 100 68 281 144 115 163 101 134 50 97 116 130 138
334 331 328 325 323 320 318 318 319 317 317 318 319 317 320 324 313 251 245 203 175 174 157 151 142 142 122 205 188 138 126 191 189 168 188 155 125 129 126 120 92 89 104 130 139
330 328 325 321 319 317 317 317 316 316 316 314 315 317 321 334 308 247 311 187 165 160 156 148 146 137 135 151 192 172 195 158 195 167 178 148 117 107 150 116 161 139 140 142 145
330 324 319 315 312 310 308 309 312 313 309 308 309 321 328 347 150 57 60 171 169 157 141 134 123 114 136 180 195 167 230 152 166 161 176 163 126 120 130 38 153 143 148 148 157
330 326 320 316 310 305 302 300 304 307 309 309 300 45 113 20 255 286 224 174 176 173 153 132 129 148 177 195 163 228 223 171 146 175 179 144 125 98 104 224 135 142 151 153 156
334 330 326 321 317 311 306 303 301 304 312 304 260 80 158 306 329 312 160 166 177 171 164 157 167 183 183 226 171 218 148 101 116 146 137 146 104 122 215 196 150 158 160 163 165
337 335 333 327 321 314 310 308 307 306 309 283 139 107 265 231 344 154 154 166 173 179 144 179 165 127 159 315 289 87 92 98 92 117 99 100 131 200 189 183 163 170 169 167 175
340 336 334 333 328 323 324 328 314 303 241 122 128 122 251 150 113 155 166 143 174 170 142 198 154 95 148 310 36 76 63 140 185 135 171 190 184 209 172 176 173 172 171 175 180
349 342 340 341 341 355 1 358 13 332 167 134 118 120 273 281 177 192 174 153 148 178 239 143 139 123 9 89 43 21 173 86 153 235 154 223 145 167 155 167 175 160 185 181 165
352 350 350 348 352 9 55 84 87 93 107 128 273 337 271 219 152 163 183 144 141 127 12 119 64 82 36 76 186 178 109 97 148 190 124 66 103 140 163 169 177 172 203 175 173
350 352 351 347 342 10 106 120 46 333 196 207 187 268 295 314 152 131 157 169 109 123 144 202 101 182 180 191 139 120 89 274 28 164 101 129 106 165 154 160 166 165 193 199 192
351 354 351 343 334 323 215 173 198 253 310 231 248 266 269 259 122 102 147 142 147 140 125 61 181 210 160 155 132 137 101 96 100 72 96 159 93 230 170 185 182 149 41 219 188
347 345 342 331 323 102 212 240 191 332 167 293 190 203 223 157 169 166 131 150 125 106 140 143 255 151 131 141 137 191 168 172 146 104 58 117 83 170 222 199 184 151 187 307 193
340 338 334 334 345 132 266 115 313 213 55 292 286 265 141 185 56 152 168 142 79 153 142 161 201 139 123 158 143 207 195 155 144 113 166 30 204 239 160 179 186 182 195 243 322
334 331 323 321 301 224 184 329 36 122 62 317 219 166 286 132 149 218 182 64 136 133 98 242 154 140 132 205 167 213 152 160 160 97 113 230 123 244 154 185 194 189 178 184 289
331 325 316 308 262 258 323 332 134 39 31 356 110 128 108 22 52 118 114 63 126 108 44 223 239 160 205 197 174 160 82 54 60 89 359 209 162 220 188 219 185 181 176 186 280
327 318 303 243 228 188 340 52 37 101 319 353 10 18 109 43 105 112 138 110 141 112 254 304 260 246 150 121 89 78 83 48 51 64 212 297 137 261 288 213 189 179 178 190 189
331 316 294 257 135 246 328 54 79 279 291 328 36 60 87 357 45 23 80 86 90 89 111 164 304 186 176 177 179 188 158 151 160 179 215 87 216 267 338 337 186 173 180 168 178
332 313 283 277 209 182 76 67 196 210 280 320 93 67 10 349 106 75 53 152 149 167 162 145 280 300 200 189 145 185 192 185 102 38 95 202 274 227 99 79 134 175 164 167 180
335 326 297 174 144 130 74 226 231 213 278 356 90 63 118 344 61 49 21 247 161 217 163 191 324 275 296 67 49 161 165 91 22 133 195 227 236 232 168 150 141 151 166 172 178
1 45 9 152 98 51 125 229 259 250 241 42 86 66 59 99 78 97 214 53 268 7 278 129 99 289 7 36 357 347 345 51 112 114 154 167 249 285 171 160 153 168 160 163 169
48 66 3 150 54 0 151 212 315 29 5 58 91 97 72 38 74 131 177 187 206 161 28 339 129 320 251 309 247 320 103 124 137 210 107 151 245 312 170 149 165 166 158 131 126
78 187 29 1 132 280 287 322 70 31 22 48 73 55 73 87 41 0 214 262 231 133 161 190 13 37 346 357 8 43 321 125 125 91 189 136 244 51 138 146 173 155 156 145 131
84 70 344 56 109 154 150 40 97 19 65 48 49 81 87 49 52 243 343 47 281 65 70 72 95 147 184 202 196 329 333 342 117 114 167 204 156 196 173 157 156 155 142 131 128
25 129 184 339 357 42 70 348 88 24 38 29 27 29 100 65 359 345 342 345 43 30 57 88 120 140 165 218 234 162 325 328 199 182 158 195 180 195 183 161 157 139 125 122 120
89 104 3 105 298 139 337 11 115 140 51 1 101 42 56 93 190 312 18 17 297 16 70 29 105 99 216 306 271 110 3 25 55 83 41 129 148 136 125 134 145 144 135 126 119
12 35 98 313 7 77 308 111 105 74 32 59 56 102 51 346 215 242 186 141 80 12 100 72 115 44 259 326 323 6 2 356 279 215 143 169 223 151 146 157 145 137 134 133 120